FW8178 Weather Reports


time (UTC)temp
C
wind
direction
speed
KPH
gust
KPH
rain 1hr
cm
rain 24hr
cm
rain mn
cm
humidity
%
barometer
mb
20260505041539 15 269 8.0 14.5 0.00 0.00 0.00 73 1009.2
20260505040052 15 281 3.2 9.7 0.00 0.00 0.00 78 1009.2
20260505034541 15 275 11.3 16.1 0.00 0.00 0.00 81 1009.3
20260505033031 15 276 4.8 9.7 0.00 0.00 0.00 85 1009.3
20260505031528 14 288 0.0 4.8 0.00 0.00 0.00 90 1009.2
20260505030027 14 288 0.0 3.2 0.00 0.00 0.00 91 1009.2
20260505024526 14 298 0.0 3.2 0.00 0.00 0.00 92 1009.4
20260505023021 14 298 0.0 4.8 0.00 0.00 0.00 92 1009.4
20260505021520 13 173 1.6 3.2 0.00 0.00 0.00 92 1009.5
20260505020025 13 172 0.0 6.4 0.00 0.00 0.00 91 1009.4
20260505014517 15 173 1.6 3.2 0.00 0.00 0.00 91 1009.3
20260505013014 14 173 0.0 1.6 0.00 0.00 0.00 91 1009.5
20260505011508 15 173 0.0 3.2 0.00 0.00 0.00 91 1009.6
20260505010006 15 173 1.6 4.8 0.00 0.00 0.00 91 1009.9
20260505004511 15 173 0.0 1.6 0.00 0.00 0.00 90 1010.1
20260505003004 15 173 0.0 3.2 0.00 0.00 0.00 89 1010.3
20260505001600 16 173 1.6 3.2 0.00 0.00 0.00 89 1010.3
20260505000108 16 173 1.6 4.8 0.00 0.00 0.00 89 1010.2
20260504234611 15 172 0.0 4.8 0.00 0.00 0.00 89 1010.4
20260504233058 16 172 4.8 8.0 0.00 0.00 0.00 88 1010.4
20260504231553 16 172 3.2 6.4 0.00 0.00 0.00 87 1010.3
20260504230054 16 111 0.0 3.2 0.00 0.00 0.00 86 1010.2
20260504224553 17 111 0.0 1.6 0.00 0.00 0.00 85 1010.3
20260504223053 17 111 0.0 3.2 0.00 0.00 0.00 86 1010.2
20260504221549 17 111 0.0 1.6 0.00 0.00 0.00 85 1010.0
20260504220056 17 111 1.6 6.4 0.00 0.00 0.00 85 1009.9
20260504214546 17 110 3.2 6.4 0.00 0.00 0.00 84 1009.8
20260504213106 17 67 0.0 4.8 0.00 0.00 0.00 83 1009.7
20260504211544 18 61 0.0 3.2 0.00 0.00 0.00 82 1009.8
20260504210043 18 61 3.2 8.0 0.00 0.00 0.00 81 1009.7
20260504204544 18 67 8.0 16.1 0.00 0.00 0.00 79 1009.7
20260504203041 18 74 9.7 16.1 0.00 0.00 0.00 78 1009.5
20260504201540 19 49 9.7 17.7 0.00 0.00 0.00 76 1009.3
20260504200039 20 69 6.4 14.5 0.00 0.00 0.00 71 1008.8
20260504194538 20 73 4.8 9.7 0.00 0.00 0.00 67 1008.5
20260504193053 21 205 0.0 3.2 0.00 0.00 0.00 65 1008.3
20260504191536 21 219 3.2 11.3 0.00 0.00 0.00 63 1008.0
20260504190040 22 193 6.4 11.3 0.00 0.00 0.00 59 1008.0
20260504184534 22 182 4.8 12.9 0.00 0.00 0.00 58 1008.2
20260504183041 22 173 8.0 14.5 0.00 0.00 0.00 56 1008.1
20260504181524 23 198 9.7 16.1 0.00 0.00 0.00 54 1008.0
20260504180023 23 204 9.7 16.1 0.00 0.00 0.00 53 1007.7
20260504174523 24 175 12.9 20.9 0.00 0.00 0.00 51 1007.8
20260504173023 25 232 8.0 20.9 0.00 0.00 0.00 50 1007.8
20260504171521 25 243 12.9 19.3 0.00 0.00 0.00 49 1007.6
20260504140109 26 194 20.9 33.8 0.00 0.00 0.00 52 1007.9
20260504081516 17 76 1.6 4.8 0.00 0.00 0.00 94 1011.1
20260504050021 16 68 0.0 3.2 0.00 0.00 0.00 95 1010.6